Location: S�o Paulo
(23.5330°S, 46.6170°W)
Time: 21:25:23
(UTC-03:00)

ISS - Visible Passes

Search period start: 19 August 2017 00:00
Search period end: 29 August 2017 00:00
Orbit: 401 x 408 km, 51.6° (Epoch: 20 August)

Date Brightness Start Highest point End Pass type
(mag) Time Alt. Az. Time Alt. Az. Time Alt. Az.
19 Aug -1.7 05:43:28 10° SSW 05:46:16 24° SE 05:49:03 10° ENE visible
20 Aug -0.9 04:52:28 10° SSE 04:53:53 12° SE 04:55:19 10° ESE visible
21 Aug -3.8 05:35:25 13° SW 05:38:17 84° SE 05:41:35 10° NE visible
22 Aug -2.3 04:45:59 32° SE 04:46:00 32° SE 04:49:01 10° ENE visible
22 Aug -1.4 19:39:12 10° NW 19:40:19 20° NW 19:40:19 20° NW visible
23 Aug -2.6 05:29:21 24° WNW 05:30:04 26° NW 05:32:52 10° N visible
23 Aug -3.0 18:47:19 10° NNW 18:50:16 32° NE 18:51:07 27° E visible
24 Aug -1.4 04:40:07 19° NNE 04:40:07 19° NNE 04:41:09 10° NNE visible
24 Aug -1.9 19:31:33 10° WNW 19:34:22 26° SW 19:34:34 26° SW visible
25 Aug -3.5 18:38:47 10° NW 18:42:01 65° SW 18:45:12 11° SSE visible
27 Aug -1.3 18:31:23 10° W 18:33:53 20° SW 18:36:25 10° S visible
